Menomonie, WI

11:18 AM CST on December 11, 2019 (GMT -0600)
Menomonie

Weather History for KLUM - October, 2019

Change the Weather History Date:

Saturday, October 26, 2019

  Actual Average (WUND) Record (WUND)
Temperature  
Mean Temperature 39 °F -  
Max Temperature 50 °F - - (-1)
Min Temperature 28 °F - - (-1)
Degree Days  
Heating Degree Days 26    
Moisture  
Dew Point 26 °F    
Average Humidity 63    
Maximum Humidity 88    
Minimum Humidity 37    
Precipitation  
Precipitation 0.00 in - - ()
Sea Level Pressure  
Sea Level Pressure 29.88 in    
Wind  
Wind Speed 6 mph (SE)    
Max Wind Speed 16 mph    
Max Gust Speed 22 mph    
Visibility 10 miles    
Events      
Averages and records for this station are not official NWS values.
T = Trace of Precipitation, MM = Missing Value Source: NWS Daily Summary

Daily Weather History Graph

Daily Weather History Graph

Search for Another Location

Airport or City:

Astronomy

Oct. 26, 2019 Rise Set
Actual Time 7:37 AM CDT 6:04 PM CDT
Civil Twilight 7:07 AM CDT 6:34 PM CDT
Nautical Twilight 6:32 AM CDT 7:09 PM CDT
Astronomical Twilight 5:58 AM CDT 7:43 PM CDT
Moon 5:24 AM CDT (10/26) 5:47 PM CDT (10/26)
Length of Visible Light 11h 27m
Length of Day
10h 27m
Waning Crescent, 3% of the Moon is Illuminated
Oct 26
Waning Crescent
Oct 27
New
Nov 4
First Quarter
Nov 12
Full
Nov 19
Last Quarter

Hourly Weather History & Observations

Time (CDT) Temp. Windchill Dew Point Humidity Pressure Visibility Wind Dir Wind Speed Gust Speed Precip Events Conditions
12:15 AM 37.9 °F 34.4 °F 28.0 °F 68% 30.07 in 10.0 mi South 4.6 mph - N/A   Clear
12:35 AM 37.8 °F 34.2 °F 28.0 °F 68% 30.06 in 10.0 mi South 4.6 mph - N/A   Clear
12:55 AM 36.7 °F 34.1 °F 27.5 °F 69% 30.05 in 10.0 mi SSE 3.5 mph - N/A   Clear
1:15 AM 35.8 °F 30.9 °F 27.7 °F 72% 30.05 in 10.0 mi SSE 5.8 mph - N/A   Clear
1:35 AM 35.2 °F 31.2 °F 27.5 °F 73% 30.05 in 10.0 mi South 4.6 mph - N/A   Clear
1:55 AM 36.0 °F 31.1 °F 27.5 °F 71% 30.04 in 10.0 mi SSE 5.8 mph - N/A   Clear
2:15 AM 36.5 °F 31.0 °F 27.9 °F 71% 30.04 in 10.0 mi SSE 6.9 mph - N/A   Clear
2:55 AM 37.4 °F 30.8 °F 27.5 °F 67% 30.03 in 10.0 mi SSE 9.2 mph - N/A   Clear
3:15 AM 35.1 °F 30.1 °F 27.3 °F 73% 30.03 in 10.0 mi SSE 5.8 mph - N/A   Clear
3:35 AM 34.5 °F 29.4 °F 27.1 °F 74% 30.02 in 10.0 mi SSE 5.8 mph - N/A   Clear
3:55 AM 33.8 °F 29.6 °F 26.8 °F 75% 30.02 in 10.0 mi SSE 4.6 mph - N/A   Clear
4:15 AM 31.6 °F 28.3 °F 26.8 °F 82% 30.02 in 10.0 mi SE 3.5 mph - N/A   Clear
4:35 AM 31.5 °F 28.1 °F 26.2 °F 81% 30.01 in 10.0 mi ESE 3.5 mph - N/A   Clear
4:55 AM 31.8 °F - 27.1 °F 83% 30.01 in 10.0 mi Calm Calm - N/A   Clear
5:15 AM 29.1 °F 24.1 °F 26.1 °F 88% 30.01 in 10.0 mi East 4.6 mph - N/A   Clear
5:35 AM 31.1 °F 23.7 °F 26.4 °F 83% 30.00 in 10.0 mi ESE 8.1 mph - N/A   Clear
5:55 AM 31.6 °F 27.0 °F 26.6 °F 82% 29.99 in 10.0 mi ESE 4.6 mph - N/A   Clear
6:15 AM 32.0 °F 27.5 °F 26.4 °F 80% 29.98 in 10.0 mi East 4.6 mph - N/A   Clear
6:35 AM 30.9 °F - 26.4 °F 83% 29.98 in 10.0 mi Calm Calm - N/A   Clear
6:55 AM 29.1 °F 24.1 °F 25.9 °F 88% 29.98 in 10.0 mi East 4.6 mph - N/A   Clear
7:15 AM 29.7 °F 24.7 °F 25.7 °F 85% 29.98 in 10.0 mi East 4.6 mph - N/A   Clear
7:35 AM 29.8 °F 23.9 °F 25.7 °F 85% 29.97 in 10.0 mi East 5.8 mph - N/A   Clear
7:55 AM 28.9 °F 23.9 °F 25.5 °F 87% 29.96 in 10.0 mi East 4.6 mph - N/A   Clear
8:15 AM 30.0 °F 25.2 °F 25.9 °F 85% 29.96 in 10.0 mi ESE 4.6 mph - N/A   Clear
8:35 AM 32.0 °F 27.5 °F 26.6 °F 80% 29.96 in 10.0 mi ESE 4.6 mph - N/A   Clear
8:55 AM 34.2 °F 31.2 °F 27.7 °F 77% 29.96 in 10.0 mi ESE 3.5 mph - N/A   Clear
9:15 AM 38.3 °F 32.5 °F 26.8 °F 63% 29.95 in 10.0 mi SSE 8.1 mph - N/A   Clear
9:35 AM 39.7 °F 33.2 °F 25.7 °F 57% 29.94 in 10.0 mi SSE 10.4 mph - N/A   Clear
9:55 AM 41.0 °F 34.3 °F 26.6 °F 57% 29.94 in 10.0 mi SSE 11.5 mph - N/A   Clear
10:15 AM 41.9 °F 36.3 °F 26.6 °F 55% 29.93 in 10.0 mi SSE 9.2 mph - N/A   Clear
10:35 AM 43.0 °F 36.8 °F 26.8 °F 53% 29.93 in 10.0 mi SSE 11.5 mph - N/A   Clear
10:55 AM 45.0 °F 40.6 °F 27.3 °F 50% 29.91 in 10.0 mi SSE 8.1 mph - N/A   Clear
11:15 AM 45.9 °F 41.2 °F 26.6 °F 47% 29.90 in 10.0 mi ESE 9.2 mph 12.7 mph N/A   Clear
11:55 AM 47.5 °F - 26.6 °F 44% 29.89 in 10.0 mi South 9.2 mph 18.4 mph N/A   Clear
12:15 PM 48.7 °F - 26.4 °F 42% 29.89 in 10.0 mi SSE 13.8 mph - N/A   Clear
12:35 PM 49.3 °F - 25.2 °F 39% 29.89 in 10.0 mi SSE 13.8 mph 21.9 mph N/A   Clear
12:55 PM 49.8 °F - 26.2 °F 40% 29.88 in 10.0 mi SE 16.1 mph - N/A   Clear
1:15 PM 49.3 °F - 25.5 °F 40% 29.88 in 10.0 mi SE 13.8 mph 19.6 mph N/A   Clear
1:35 PM 50.0 °F - 24.4 °F 37% 29.87 in 10.0 mi SSE 13.8 mph 19.6 mph N/A   Clear
1:55 PM 49.8 °F - 25.7 °F 39% 29.85 in 10.0 mi SSE 9.2 mph - N/A   Clear
2:15 PM 48.9 °F - 25.0 °F 39% 29.84 in 10.0 mi ESE 12.7 mph 20.7 mph N/A   Clear
2:35 PM 48.4 °F - 24.4 °F 39% 29.83 in 10.0 mi East 10.4 mph - N/A   Clear
2:55 PM 49.1 °F - 23.5 °F 37% 29.82 in 10.0 mi SE 11.5 mph - N/A   Clear
3:15 PM 48.4 °F - 24.8 °F 40% 29.80 in 10.0 mi ESE 9.2 mph - N/A   Clear
3:35 PM 48.7 °F - 24.4 °F 39% 29.80 in 10.0 mi SE 10.4 mph - N/A   Clear
3:55 PM 48.4 °F - 24.4 °F 39% 29.79 in 10.0 mi ESE 11.5 mph - N/A   Clear
4:15 PM 47.3 °F - 24.8 °F 41% 29.79 in 10.0 mi ESE 10.4 mph - N/A   Clear
4:35 PM 46.8 °F - 23.4 °F 40% 29.79 in 10.0 mi SE 9.2 mph 16.1 mph N/A   Clear
4:55 PM 46.4 °F 42.9 °F 22.5 °F 39% 29.78 in 10.0 mi SE 6.9 mph - N/A   Clear
5:15 PM 46.6 °F - 23.0 °F 39% 29.77 in 10.0 mi SE 10.4 mph - N/A   Clear
5:35 PM 45.0 °F 41.8 °F 23.4 °F 43% 29.77 in 10.0 mi SE 5.8 mph - N/A   Clear
5:55 PM 43.5 °F 40.1 °F 24.3 °F 47% 29.76 in 10.0 mi ESE 5.8 mph - N/A   Clear
6:15 PM 42.6 °F 39.9 °F 24.8 °F 49% 29.77 in 10.0 mi ESE 4.6 mph - N/A   Clear
6:35 PM 40.5 °F 37.3 °F 25.7 °F 56% 29.77 in 10.0 mi ESE 4.6 mph - N/A   Clear
6:55 PM 40.3 °F 38.2 °F 25.2 °F 55% 29.76 in 10.0 mi ESE 3.5 mph - N/A   Clear
7:15 PM 39.2 °F 35.0 °F 25.5 °F 58% 29.76 in 10.0 mi ESE 5.8 mph - N/A   Clear
7:35 PM 38.3 °F 33.9 °F 25.3 °F 60% 29.75 in 10.0 mi ESE 5.8 mph - N/A   Clear
7:55 PM 35.8 °F 31.9 °F 25.7 °F 67% 29.75 in 10.0 mi ESE 4.6 mph - N/A   Clear
8:15 PM 36.0 °F 33.3 °F 25.7 °F 66% 29.73 in 10.0 mi ESE 3.5 mph - N/A   Clear
8:35 PM 36.1 °F - 25.5 °F 65% 29.73 in 10.0 mi Calm Calm - N/A   Clear
8:55 PM 36.5 °F - 25.7 °F 65% 29.72 in 10.0 mi Calm Calm - N/A   Clear
9:15 PM 35.8 °F - 25.5 °F 66% 29.73 in 10.0 mi Calm Calm - N/A   Clear
9:35 PM 35.1 °F - 25.7 °F 69% 29.72 in 10.0 mi Calm Calm - N/A   Clear
9:55 PM 32.2 °F - 25.9 °F 78% 29.72 in 10.0 mi Calm Calm - N/A   Clear
10:15 PM 33.6 °F - 25.9 °F 73% 29.71 in 10.0 mi Calm Calm - N/A   Clear
10:35 PM 30.2 °F - 25.7 °F 83% 29.72 in 10.0 mi Calm Calm - N/A   Clear
10:55 PM 31.6 °F - 26.1 °F 80% 29.73 in 10.0 mi Calm Calm - N/A   Clear
11:15 PM 29.8 °F - 25.7 °F 85% 29.73 in 7.0 mi Calm Calm - N/A   Clear
11:35 PM 30.6 °F - 25.5 °F 82% 29.73 in 5.0 mi Calm Calm - N/A   Haze
11:55 PM 29.5 °F - 25.3 °F 85% 29.73 in 10.0 mi Calm Calm - N/A   Clear